User: anonymous   Login
Location: Unspecified
(0.0000°N, 0.0000°E)
Time: 18:07:00
(UTC+00:00)
Language:

GHGSAT-C7 - Orbit

View from above orbital plane
View from above orbital plane
View from above satellite
View from above satellite

Ground track
Ground track

The orbit is defined by the following mean orbital elements,

1 56209U          26145.53126000 +.00000000 +00000-0 +19479-3 0 00003
2 56209  97.3024  53.6215 0009823 111.2145 249.0156 15.49331587    01
Epoch (UTC): 25 May 2026 12:45:00
Eccentricity: 0.0009823
inclination: 97.3024°
perigee height: 412 km
apogee height: 425 km
right ascension of ascending node: 53.6215°
argument of perigee: 111.2145°
revolutions per day: 15.49331587
mean anomaly at epoch: 249.0156°

The dashed part of the orbit path shows where the satellite is in the earth's shadow,  

DLR